Dewpoint
54 55 56 58 59 59 60 60 60 58 59 59 59 58 57 55 53 54 52 49 49 44 41 40 37 36 35 34 33 33 32 31 29 27 28 29 28 29 29 30 31 29 29
44 50 52 53 55 56 58 59 57 58 56 57 56 55 54 53 52 52 49 48 48 44 40 38 35 34 34 33 32 31 30 31 31 27 28 28 28 29 28 29 29 29 29
42 43 44 47 51 53 54 55 56 55 53 52 51 51 50 50 49 49 49 47 46 45 41 37 35 34 33 32 31 31 30 29 31 30 28 29 29 30 29 29 28 27 29
44 44 44 44 45 49 51 52 52 52 51 50 50 49 48 48 47 46 45 44 44 42 39 36 34 33 32 32 31 31 31 30 29 29 28 29 29 29 29 26 25 25 26
43 43 43 43 43 44 45 47 46 46 47 46 45 44 43 44 42 40 39 40 39 37 37 34 34 33 33 32 30 31 30 29 29 29 29 29 29 28 26 26 26 25 24
42 41 41 41 40 40 39 39 40 41 41 40 39 40 40 40 41 40 40 37 35 35 34 33 33 32 33 34 34 34 31 29 28 29 29 28 28 28 28 27 26 24 22
38 37 37 37 37 36 35 35 36 36 35 35 37 37 37 36 38 39 37 35 34 33 32 32 34 31 32 32 34 35 34 33 31 29 29 29 29 28 27 23 25 25 24
35 35 35 35 35 35 34 34 34 34 36 36 35 35 35 35 37 38 35 33 33 33 33 32 31 31 32 31 32 32 31 32 32 31 30 30 30 30 28 26 25 23 26
34 34 34 34 31 32 31 32 35 34 33 34 33 34 34 33 37 37 35 32 32 32 32 31 31 31 32 33 30 30 30 30 32 33 32 32 32 32 30 26 23 20 19
33 33 33 33 29 29 30 29 29 33 33 32 32 33 33 33 37 37 34 32 32 31 31 30 31 30 32 33 29 29 28 28 29 29 30 31 31 32 32 28 25 21 18
32 31 30 30 28 28 28 28 27 31 32 31 31 31 32 33 35 37 36 32 32 32 30 29 29 31 33 33 31 29 28 29 30 29 29 29 29 28 29 28 26 25 22
28 28 27 28 30 30 23 25 31 32 32 31 31 30 31 31 34 37 37 34 33 32 30 30 29 32 32 33 32 31 30 30 30 29 28 27 27 27 27 27 26 27 26
27 28 30 30 30 31 24 26 31 31 31 30 30 30 30 30 32 36 36 35 34 31 30 30 30 32 33 32 34 33 30 30 29 28 28 27 28 28 27 25 26 25 27
26 27 23 23 26 27 25 26 26 29 30 30 30 30 30 30 31 32 34 35 33 33 30 30 31 31 32 32 31 33 32 31 30 28 28 28 28 25 26 26 26 25 24
22 23 28 26 21 22 23 24 25 24 26 26 28 31 31 29 30 32 33 33 33 32 31 31 30 30 29 30 30 31 31 31 30 29 29 28 27 26 25 25 24 24 22
24 22 21 21 20 21 21 23 29 32 33 33 33 31 27 32 33 32 33 34 34 34 31 29 29 29 28 28 29 29 30 30 30 29 29 28 26 25 24 24 24 22 21
22 20 19 21 21 20 20 20 21 25 29 30 31 31 31 32 33 33 32 33 34 34 31 29 28 28 28 28 28 28 28 28 29 28 28 27 26 25 24 23 22 21 20
28 28 27 27 28 27 26 24 22 16 17 20 25 29 30 30 31 32 32 32 31 33 33 32 30 29 28 28 28 28 28 28 28 27 26 25 24 23 22 21 21 20 19
25 25 25 26 27 26 25 17 16 15 15 16 15 23 22 28 30 30 30 30 29 29 30 31 32 31 29 29 29 28 28 28 27 26 25 24 23 22 20 20 20 19 18
23 23 24 24 24 24 22 23 12 13 12 11 12 15 19 18 26 22 21 29 29 30 30 29 29 32 31 30 30 30 29 28 26 25 23 22 22 21 20 19 18 17 16
12 8 17 19 19 20 12 15 14 15 21 17 17 20 26 25 26 24 27 24 22 26 28 29 29 29 30 30 30 30 28 27 25 22 22 21 20 19 19 18 17 16 15
-3 -3 -1 -0 1 6 11 15 10 15 17 17 17 11 21 11 14 19 21 22 24 26 27 29 30 30 30 30 30 28 25 24 23 22 20 20 18 18 17 16 14 14 12
-3 -3 -2 -3 -4 -1 -2 -1 5 12 12 15 16 11 9 6 5 8 13 15 17 18 20 22 23 23 23 23 24 25 23 22 22 21 19 18 16 16 15 13 12 12 10
-4 -6 -6 -7 -6 -6 -5 -3 -3 2 3 4 5 4 4 7 5 5 6 9 11 12 13 14 15 16 17 16 15 17 19 21 20 19 18 17 15 14 13 12 11 10 9
-3 -5 -10 -9 -11 -10 -9 -7 -7 -10 -7 -6 -4 -2 2 0 2 2 3 5 6 7 7 8 8 10 10 11 12 13 14 15 16 14 15 15 13 11 11 10 9 9 8
-6 -7 -10 -12 -12 -14 -13 -9 -7 -10 -9 -6 -5 -7 -4 -1 0 1 1 1 2 3 2 2 1 0 1 4 6 9 10 13 12 12 13 12 10 9 9 8 8 7 7
Lifted_Index
3 2 2 1 1 0 0 -0 -0 -1 -1 -2 -2 -2 -2 -2 -2 -2 -2 -1 -1 -0 -0 0 1 2 3 3 5 9 13 14 12 12 12 14 15 15 16 16 16 16 16
5 5 4 3 2 1 1 0 -0 -1 -1 -1 -2 -2 -2 -2 -2 -2 -2 -1 -1 -1 -1 -0 1 2 2 3 5 10 13 14 13 12 13 14 15 15 15 15 15 16 16
8 8 7 6 5 3 2 1 0 -0 -1 -1 -1 -2 -2 -2 -2 -2 -2 -2 -1 -1 -1 -1 0 1 1 2 6 11 13 13 13 13 13 14 15 14 14 14 15 15 16
10 10 9 9 8 6 4 2 1 0 -0 -0 -1 -1 -1 -1 -1 -2 -2 -1 -1 -1 -1 -1 -0 1 2 4 8 12 13 13 13 13 13 13 13 13 13 13 14 15 15
10 10 10 9 9 8 6 4 3 2 2 1 1 1 0 0 -0 -1 -1 -1 -1 -0 -1 -1 -0 2 4 7 11 13 13 13 13 13 13 12 11 11 12 13 14 14 14
9 9 9 9 9 8 8 7 6 5 4 4 4 3 3 2 1 1 1 0 0 0 0 -0 0 2 5 9 13 14 14 13 13 13 12 11 10 10 12 13 14 14 14
9 9 8 8 8 8 8 8 8 7 7 6 6 5 5 4 3 3 2 2 1 1 1 0 1 3 7 11 14 15 15 14 14 14 12 11 10 11 12 13 14 14 14
8 8 8 7 7 7 7 7 7 7 7 7 6 5 5 4 4 3 3 2 2 1 1 2 3 5 8 12 14 15 15 15 15 14 13 12 12 12 13 14 14 14 14
7 7 7 7 7 7 6 6 6 6 6 5 5 4 4 3 3 3 2 2 1 1 2 3 4 7 10 13 14 14 15 15 15 14 13 12 13 14 14 15 15 15 14
7 7 7 7 6 6 6 6 6 6 6 5 4 4 3 2 2 2 1 1 1 1 2 3 5 9 12 14 15 15 15 15 14 13 12 12 13 14 15 16 16 15 15
7 7 7 6 6 6 6 6 6 6 6 5 5 4 3 2 2 2 1 1 1 1 2 4 7 10 13 15 15 15 16 15 14 13 11 11 11 12 14 16 17 16 16
7 7 7 7 7 6 6 6 6 6 5 5 5 5 4 3 2 2 3 3 3 3 3 5 9 12 14 14 15 16 16 16 14 13 11 10 10 11 13 16 17 17 17
7 7 8 8 8 7 7 6 6 5 5 5 5 5 5 4 4 4 4 5 5 5 6 8 11 13 14 14 15 16 17 16 14 13 11 10 10 11 13 16 17 17 17
7 8 8 8 8 8 8 8 7 7 6 6 5 5 5 5 5 6 6 7 7 8 8 10 11 13 13 14 15 16 16 15 13 12 11 10 10 11 13 15 16 15 16
8 8 9 9 9 9 9 9 9 8 8 7 7 6 6 6 7 7 7 8 9 10 10 10 11 12 12 14 15 16 16 15 13 12 11 10 10 11 13 14 14 14 14
9 9 10 10 10 11 11 11 10 10 9 9 9 8 8 8 8 8 9 9 11 11 10 10 10 11 12 13 14 15 15 14 12 11 11 10 10 11 13 14 14 13 14
10 11 12 12 12 13 13 12 12 12 11 11 11 10 10 10 10 10 10 10 11 11 10 9 9 11 12 13 13 14 14 14 12 11 10 10 10 11 12 13 13 13 12
13 13 14 14 14 14 14 14 14 13 13 13 12 12 11 11 11 11 11 11 10 10 10 10 10 11 11 12 13 13 14 14 12 11 10 10 10 11 12 12 12 12 11
15 15 15 16 16 16 16 16 16 15 15 15 14 14 13 13 12 12 12 11 10 10 10 11 12 12 13 13 13 13 13 13 12 11 10 10 10 10 11 12 12 11 10
16 16 17 17 17 17 17 17 17 16 16 16 15 15 15 15 14 14 14 13 12 12 12 12 13 14 14 14 14 13 13 13 12 11 10 10 10 10 10 11 11 10 10
17 17 17 17 17 17 17 17 17 17 17 16 16 17 17 16 16 16 16 15 15 14 13 13 13 14 15 15 14 14 13 13 12 12 11 11 10 10 10 11 10 10 10
17 17 17 17 17 17 17 17 17 17 17 17 17 17 17 17 17 17 17 17 16 15 15 14 14 14 15 15 14 14 14 13 13 12 12 11 11 11 10 10 10 10 10
17 17 17 16 16 16 16 17 17 17 17 17 17 17 17 17 17 17 17 17 16 15 15 15 14 14 14 15 15 15 14 14 14 13 13 12 11 11 10 10 10 10 10
16 16 16 16 16 16 16 16 16 17 17 17 17 17 17 17 17 17 17 16 16 15 15 15 15 14 14 14 15 15 15 15 14 14 13 13 12 11 10 10 11 11 11
16 16 15 15 15 15 15 16 16 16 16 16 16 17 17 17 16 16 17 16 16 16 16 16 15 15 15 15 15 15 15 14 14 14 14 13 13 12 11 11 11 12 12
15 15 15 15 15 15 15 15 15 15 15 16 16 16 17 16 16 16 17 16 16 16 16 16 16 16 15 15 15 14 14 14 14 14 14 14 13 12 12 12 12 12 12